Year,Month,Day,Hour,Minute,Value (Times are PST for temperature in C)
2008,09,29,00,00,9.00
2008,09,29,00,01,9.00
2008,09,29,00,02,9.00
2008,09,29,00,03,8.90
2008,09,29,00,04,8.90
2008,09,29,00,05,8.90
2008,09,29,00,06,8.90
2008,09,29,00,07,8.90
2008,09,29,00,08,8.90
2008,09,29,00,09,8.80
2008,09,29,00,10,8.80
2008,09,29,00,11,8.80
2008,09,29,00,12,8.70
2008,09,29,00,13,8.70
2008,09,29,00,14,8.70
2008,09,29,00,15,8.70
2008,09,29,00,16,8.70
2008,09,29,00,17,8.70
2008,09,29,00,18,8.70
2008,09,29,00,19,8.70
2008,09,29,00,20,8.70
2008,09,29,00,21,8.70
2008,09,29,00,22,8.60
2008,09,29,00,23,8.60
2008,09,29,00,24,8.60
2008,09,29,00,25,8.60
2008,09,29,00,26,8.60
2008,09,29,00,27,8.50
2008,09,29,00,28,8.50
2008,09,29,00,29,8.50
2008,09,29,00,30,8.50
2008,09,29,00,31,8.50
2008,09,29,00,32,8.50
2008,09,29,00,33,8.60
2008,09,29,00,34,8.60
2008,09,29,00,35,8.60
2008,09,29,00,36,8.60
2008,09,29,00,37,8.60
2008,09,29,00,38,8.60
2008,09,29,00,39,8.60
2008,09,29,00,40,8.60
2008,09,29,00,41,8.60
2008,09,29,00,42,8.60
2008,09,29,00,43,8.60
2008,09,29,00,44,8.60
2008,09,29,00,45,8.60
2008,09,29,00,46,8.60
2008,09,29,00,47,8.60
2008,09,29,00,48,8.50
2008,09,29,00,49,8.50
2008,09,29,00,50,8.50
2008,09,29,00,51,8.50
2008,09,29,00,52,8.50
2008,09,29,00,53,8.50
2008,09,29,00,54,8.50
2008,09,29,00,55,8.50
2008,09,29,00,56,8.50
2008,09,29,00,57,8.50
2008,09,29,00,58,8.50
2008,09,29,00,59,8.40
2008,09,29,01,00,8.40
2008,09,29,01,01,8.40
2008,09,29,01,02,8.40
2008,09,29,01,03,8.30
2008,09,29,01,04,8.30
2008,09,29,01,05,8.30
2008,09,29,01,06,8.30
2008,09,29,01,07,8.40
2008,09,29,01,08,8.40
2008,09,29,01,09,8.40
2008,09,29,01,10,8.50
2008,09,29,01,11,8.50
2008,09,29,01,12,8.60
2008,09,29,01,13,8.60
2008,09,29,01,14,8.60
2008,09,29,01,15,8.60
2008,09,29,01,16,8.60
2008,09,29,01,17,8.70
2008,09,29,01,18,8.70
2008,09,29,01,19,8.70
2008,09,29,01,20,8.70
2008,09,29,01,21,8.70
2008,09,29,01,22,8.70
2008,09,29,01,23,8.70
2008,09,29,01,24,8.70
2008,09,29,01,25,8.70
2008,09,29,01,26,8.70
2008,09,29,01,27,8.70
2008,09,29,01,28,8.70
2008,09,29,01,29,8.70
2008,09,29,01,30,8.60
2008,09,29,01,31,8.60
2008,09,29,01,32,8.60
2008,09,29,01,33,8.50
2008,09,29,01,34,8.50
2008,09,29,01,35,8.50
2008,09,29,01,36,8.50
2008,09,29,01,37,8.50
2008,09,29,01,38,8.50
2008,09,29,01,39,8.50
2008,09,29,01,40,8.50
2008,09,29,01,41,8.50
2008,09,29,01,42,8.50
2008,09,29,01,43,8.50
2008,09,29,01,44,8.40
2008,09,29,01,45,8.40
2008,09,29,01,46,8.40
2008,09,29,01,47,8.40
2008,09,29,01,48,8.40
2008,09,29,01,49,8.40
2008,09,29,01,50,8.40
2008,09,29,01,51,8.40
2008,09,29,01,52,8.40
2008,09,29,01,53,8.40
2008,09,29,01,54,8.40
2008,09,29,01,55,8.40
2008,09,29,01,56,8.40
2008,09,29,01,57,8.50
2008,09,29,01,58,8.40
2008,09,29,01,59,8.40
2008,09,29,02,00,8.40
2008,09,29,02,01,8.40
2008,09,29,02,02,8.40
2008,09,29,02,03,8.40
2008,09,29,02,04,8.40
2008,09,29,02,05,8.40
2008,09,29,02,06,8.30
2008,09,29,02,07,8.30
2008,09,29,02,08,8.30
2008,09,29,02,09,8.30
2008,09,29,02,10,8.30
2008,09,29,02,11,8.20
2008,09,29,02,12,8.20
2008,09,29,02,13,8.20
2008,09,29,02,14,8.20
2008,09,29,02,15,8.20
2008,09,29,02,16,8.30
2008,09,29,02,17,8.30
2008,09,29,02,18,8.30
2008,09,29,02,19,8.30
2008,09,29,02,20,8.30
2008,09,29,02,21,8.30
2008,09,29,02,22,8.30
2008,09,29,02,23,8.30
2008,09,29,02,24,8.30
2008,09,29,02,25,8.30
2008,09,29,02,26,8.30
2008,09,29,02,27,8.30
2008,09,29,02,28,8.30
2008,09,29,02,29,8.30
2008,09,29,02,30,8.30
2008,09,29,02,31,8.30
2008,09,29,02,32,8.20
2008,09,29,02,33,8.20
2008,09,29,02,34,8.20
2008,09,29,02,35,8.20
2008,09,29,02,36,8.20
2008,09,29,02,37,8.20
2008,09,29,02,38,8.20
2008,09,29,02,39,8.20
2008,09,29,02,40,8.20
2008,09,29,02,41,8.20
2008,09,29,02,42,8.20
2008,09,29,02,43,8.10
2008,09,29,02,44,8.10
2008,09,29,02,45,8.10
2008,09,29,02,46,8.10
2008,09,29,02,47,8.10
2008,09,29,02,48,8.20
2008,09,29,02,49,8.20
2008,09,29,02,50,8.20
2008,09,29,02,51,8.20
2008,09,29,02,52,8.20
2008,09,29,02,53,8.20
2008,09,29,02,54,8.20
2008,09,29,02,55,8.20
2008,09,29,02,56,8.10
2008,09,29,02,57,8.10
2008,09,29,02,58,8.20
2008,09,29,02,59,8.10
2008,09,29,03,00,8.10
2008,09,29,03,01,8.10
2008,09,29,03,02,8.10
2008,09,29,03,03,8.10
2008,09,29,03,04,8.10
2008,09,29,03,05,8.10
2008,09,29,03,06,8.10
2008,09,29,03,07,8.10
2008,09,29,03,08,8.00
2008,09,29,03,09,8.00
2008,09,29,03,10,8.00
2008,09,29,03,11,8.00
2008,09,29,03,12,8.00
2008,09,29,03,13,8.00
2008,09,29,03,14,8.00
2008,09,29,03,15,8.00
2008,09,29,03,16,8.00
2008,09,29,03,17,8.10
2008,09,29,03,18,8.10
2008,09,29,03,19,8.10
2008,09,29,03,20,8.10
2008,09,29,03,21,8.10
2008,09,29,03,22,8.10
2008,09,29,03,23,8.10
2008,09,29,03,24,8.10
2008,09,29,03,25,8.20
2008,09,29,03,26,8.20
2008,09,29,03,27,8.20
2008,09,29,03,28,8.20
2008,09,29,03,29,8.20
2008,09,29,03,30,8.20
2008,09,29,03,31,8.20
2008,09,29,03,32,8.20
2008,09,29,03,33,8.20
2008,09,29,03,34,8.20
2008,09,29,03,35,8.20
2008,09,29,03,36,8.20
2008,09,29,03,37,8.20
2008,09,29,03,38,8.20
2008,09,29,03,39,8.20
2008,09,29,03,40,8.20
2008,09,29,03,41,8.20
2008,09,29,03,42,8.20
2008,09,29,03,43,8.20
2008,09,29,03,44,8.20
2008,09,29,03,45,8.20
2008,09,29,03,46,8.10
2008,09,29,03,47,8.10
2008,09,29,03,48,8.10
2008,09,29,03,49,8.10
2008,09,29,03,50,8.00
2008,09,29,03,51,8.00
2008,09,29,03,52,8.00
2008,09,29,03,53,8.00
2008,09,29,03,54,7.90
2008,09,29,03,55,7.90
2008,09,29,03,56,7.90
2008,09,29,03,57,7.90
2008,09,29,03,58,7.90
2008,09,29,03,59,7.90
2008,09,29,04,00,7.90
2008,09,29,04,01,7.90
2008,09,29,04,02,7.90
2008,09,29,04,03,7.90
2008,09,29,04,04,7.90
2008,09,29,04,05,7.90
2008,09,29,04,06,7.90
2008,09,29,04,07,7.80
2008,09,29,04,08,7.80
2008,09,29,04,09,7.80
2008,09,29,04,10,7.80
2008,09,29,04,11,7.80
2008,09,29,04,12,7.80
2008,09,29,04,13,7.80
2008,09,29,04,14,7.90
2008,09,29,04,15,7.90
2008,09,29,04,16,7.90
2008,09,29,04,17,8.00
2008,09,29,04,18,8.00
2008,09,29,04,19,8.00
2008,09,29,04,20,8.00
2008,09,29,04,21,8.00
2008,09,29,04,22,8.00
2008,09,29,04,23,8.00
2008,09,29,04,24,8.10
2008,09,29,04,25,8.10
2008,09,29,04,26,8.20
2008,09,29,04,27,8.20
2008,09,29,04,28,8.20
2008,09,29,04,29,8.20
2008,09,29,04,30,8.30
2008,09,29,04,31,8.30
2008,09,29,04,32,8.40
2008,09,29,04,33,8.50
2008,09,29,04,34,8.60
2008,09,29,04,35,8.70
2008,09,29,04,36,8.70
2008,09,29,04,37,8.80
2008,09,29,04,38,8.90
2008,09,29,04,39,9.00
2008,09,29,04,40,9.10
2008,09,29,04,41,9.20
2008,09,29,04,42,9.30
2008,09,29,04,43,9.40
2008,09,29,04,44,9.50
2008,09,29,04,45,9.60
2008,09,29,04,46,9.70
2008,09,29,04,47,9.70
2008,09,29,04,48,9.80
2008,09,29,04,49,9.90
2008,09,29,04,50,10.00
2008,09,29,04,51,10.10
2008,09,29,04,52,10.20
2008,09,29,04,53,10.30
2008,09,29,04,54,10.50
2008,09,29,04,55,10.60
2008,09,29,04,56,10.60
2008,09,29,04,57,10.70
2008,09,29,04,58,10.70
2008,09,29,04,59,10.70
2008,09,29,05,00,10.70
2008,09,29,05,01,10.70
2008,09,29,05,02,10.70
2008,09,29,05,03,10.70
2008,09,29,05,04,10.70
2008,09,29,05,05,10.70
2008,09,29,05,06,10.70
2008,09,29,05,07,10.70
2008,09,29,05,08,10.80
2008,09,29,05,09,10.80
2008,09,29,05,10,10.80
2008,09,29,05,11,10.80
2008,09,29,05,12,10.80
2008,09,29,05,13,10.90
2008,09,29,05,14,10.80
2008,09,29,05,15,10.80
2008,09,29,05,16,10.90
2008,09,29,05,17,10.90
2008,09,29,05,18,10.90
2008,09,29,05,19,10.90
2008,09,29,05,20,10.80
2008,09,29,05,21,10.80
2008,09,29,05,22,10.70
2008,09,29,05,23,10.70
2008,09,29,05,24,10.70
2008,09,29,05,25,10.60
2008,09,29,05,26,10.60
2008,09,29,05,27,10.60
2008,09,29,05,28,10.60
2008,09,29,05,29,10.60
2008,09,29,05,30,10.50
2008,09,29,05,31,10.40
2008,09,29,05,32,10.40
2008,09,29,05,33,10.40
2008,09,29,05,34,10.30
2008,09,29,05,35,10.30
2008,09,29,05,36,10.30
2008,09,29,05,37,10.30
2008,09,29,05,38,10.30
2008,09,29,05,39,10.30
2008,09,29,05,40,10.30
2008,09,29,05,41,10.30
2008,09,29,05,42,10.20
2008,09,29,05,43,10.20
2008,09,29,05,44,10.20
2008,09,29,05,45,10.20
2008,09,29,05,46,10.10
2008,09,29,05,47,10.10
2008,09,29,05,48,10.20
2008,09,29,05,49,10.20
2008,09,29,05,50,10.20
2008,09,29,05,51,10.20
2008,09,29,05,52,10.20
2008,09,29,05,53,10.20
2008,09,29,05,54,10.20
2008,09,29,05,55,10.10
2008,09,29,05,56,10.10
2008,09,29,05,57,10.10
2008,09,29,05,58,10.10
2008,09,29,05,59,10.10
2008,09,29,06,00,10.10
2008,09,29,06,01,10.10
2008,09,29,06,02,10.10
2008,09,29,06,03,10.10
2008,09,29,06,04,10.10
2008,09,29,06,05,10.10
2008,09,29,06,06,10.10
2008,09,29,06,07,10.10
2008,09,29,06,08,10.10
2008,09,29,06,09,10.10
2008,09,29,06,10,10.10
2008,09,29,06,11,10.10
2008,09,29,06,12,10.10
2008,09,29,06,13,10.10
2008,09,29,06,14,10.10
2008,09,29,06,15,10.10
2008,09,29,06,16,10.10
2008,09,29,06,17,10.10
2008,09,29,06,18,10.20
2008,09,29,06,19,10.20
2008,09,29,06,20,10.20
2008,09,29,06,21,10.10
2008,09,29,06,22,10.10
2008,09,29,06,23,10.10
2008,09,29,06,24,10.10
2008,09,29,06,25,10.10
2008,09,29,06,26,10.00
2008,09,29,06,27,9.90
2008,09,29,06,28,9.90
2008,09,29,06,29,9.90
2008,09,29,06,30,9.90
2008,09,29,06,31,9.80
2008,09,29,06,32,9.80
2008,09,29,06,33,9.70
2008,09,29,06,34,9.70
2008,09,29,06,35,9.70
2008,09,29,06,36,9.70
2008,09,29,06,37,9.70
2008,09,29,06,38,9.70
2008,09,29,06,39,9.70
2008,09,29,06,40,9.70
2008,09,29,06,41,9.70
2008,09,29,06,42,9.70
2008,09,29,06,43,9.70
2008,09,29,06,44,9.70
2008,09,29,06,45,9.70
2008,09,29,06,46,9.70
2008,09,29,06,47,9.70
2008,09,29,06,48,9.70
2008,09,29,06,49,9.70
2008,09,29,06,50,9.70
2008,09,29,06,51,9.70
2008,09,29,06,52,9.70
2008,09,29,06,53,9.70
2008,09,29,06,54,9.70
2008,09,29,06,55,9.70
2008,09,29,06,56,9.70
2008,09,29,06,57,9.70
2008,09,29,06,58,9.70
2008,09,29,06,59,9.70
2008,09,29,07,00,9.70
2008,09,29,07,01,9.70
2008,09,29,07,02,9.70
2008,09,29,07,03,9.70
2008,09,29,07,04,9.70
2008,09,29,07,05,9.70
2008,09,29,07,06,9.60
2008,09,29,07,07,9.60
2008,09,29,07,08,9.60
2008,09,29,07,09,9.60
2008,09,29,07,10,9.70
2008,09,29,07,11,9.70
2008,09,29,07,12,9.70
2008,09,29,07,13,9.70
2008,09,29,07,14,9.70
2008,09,29,07,15,9.70
2008,09,29,07,16,9.80
2008,09,29,07,17,9.80
2008,09,29,07,18,9.80
2008,09,29,07,19,9.80
2008,09,29,07,20,9.80
2008,09,29,07,21,9.70
2008,09,29,07,22,9.70
2008,09,29,07,23,9.70
2008,09,29,07,24,9.70
2008,09,29,07,25,9.80
2008,09,29,07,26,9.80
2008,09,29,07,27,9.80
2008,09,29,07,28,9.90
2008,09,29,07,29,9.90
2008,09,29,07,30,9.90
2008,09,29,07,31,9.90
2008,09,29,07,32,10.00
2008,09,29,07,33,10.10
2008,09,29,07,34,10.10
2008,09,29,07,35,10.10
2008,09,29,07,36,10.10
2008,09,29,07,37,10.10
2008,09,29,07,38,9.90
2008,09,29,07,39,9.90
2008,09,29,07,40,9.90
2008,09,29,07,41,9.90
2008,09,29,07,42,9.90
2008,09,29,07,43,9.80
2008,09,29,07,44,9.80
2008,09,29,07,45,9.70
2008,09,29,07,46,9.70
2008,09,29,07,47,9.70
2008,09,29,07,48,9.70
2008,09,29,07,49,9.70
2008,09,29,07,50,9.70
2008,09,29,07,51,9.70
2008,09,29,07,52,9.70
2008,09,29,07,53,9.70
2008,09,29,07,54,9.70
2008,09,29,07,55,9.70
2008,09,29,07,56,9.70
2008,09,29,07,57,9.70
2008,09,29,07,58,9.80
2008,09,29,07,59,9.80
2008,09,29,08,00,9.80
2008,09,29,08,01,9.90
2008,09,29,08,02,9.90
2008,09,29,08,03,9.90
2008,09,29,08,04,9.90
2008,09,29,08,05,9.90
2008,09,29,08,06,9.90
2008,09,29,08,07,10.10
2008,09,29,08,08,10.10
2008,09,29,08,09,10.10
2008,09,29,08,10,10.10
2008,09,29,08,11,10.20
2008,09,29,08,12,10.20
2008,09,29,08,13,10.20
2008,09,29,08,14,10.30
2008,09,29,08,15,10.30
2008,09,29,08,16,10.30
2008,09,29,08,17,10.40
2008,09,29,08,18,10.40
2008,09,29,08,19,10.40
2008,09,29,08,20,10.40
2008,09,29,08,21,10.40
2008,09,29,08,22,10.60
2008,09,29,08,23,10.60
2008,09,29,08,24,10.60
2008,09,29,08,25,10.70
2008,09,29,08,26,10.70
2008,09,29,08,27,10.80
2008,09,29,08,28,10.80
2008,09,29,08,29,10.80
2008,09,29,08,30,10.80
2008,09,29,08,31,10.90
2008,09,29,08,32,10.90
2008,09,29,08,33,10.90
2008,09,29,08,34,10.90
2008,09,29,08,35,10.90
2008,09,29,08,36,11.00
2008,09,29,08,37,11.10
2008,09,29,08,38,11.10
2008,09,29,08,39,11.20
2008,09,29,08,40,11.30
2008,09,29,08,41,11.40
2008,09,29,08,42,11.50
2008,09,29,08,43,11.60
2008,09,29,08,44,11.70
2008,09,29,08,45,11.80
2008,09,29,08,46,12.00
2008,09,29,08,47,12.10
2008,09,29,08,48,12.20
2008,09,29,08,49,12.30
2008,09,29,08,50,12.50
2008,09,29,08,51,12.60
2008,09,29,08,52,12.70
2008,09,29,08,53,12.80
2008,09,29,08,54,13.00
2008,09,29,08,55,13.10
2008,09,29,08,56,13.20
2008,09,29,08,57,13.30
2008,09,29,08,58,13.40
2008,09,29,08,59,13.50
2008,09,29,09,00,13.60
2008,09,29,09,01,13.70
2008,09,29,09,02,13.70
2008,09,29,09,03,13.80
2008,09,29,09,04,13.90
2008,09,29,09,05,13.90
2008,09,29,09,06,14.00
2008,09,29,09,07,14.10
2008,09,29,09,08,14.20
2008,09,29,09,09,14.20
2008,09,29,09,10,14.30
2008,09,29,09,11,14.40
2008,09,29,09,12,14.50
2008,09,29,09,13,14.50
2008,09,29,09,14,14.60
2008,09,29,09,15,14.70
2008,09,29,09,16,14.70
2008,09,29,09,17,14.80
2008,09,29,09,18,14.90
2008,09,29,09,19,15.00
2008,09,29,09,20,15.10
2008,09,29,09,21,15.20
2008,09,29,09,22,15.30
2008,09,29,09,23,15.40
2008,09,29,09,24,15.50
2008,09,29,09,25,15.50
2008,09,29,09,26,15.60
2008,09,29,09,27,15.70
2008,09,29,09,28,15.80
2008,09,29,09,29,15.90
2008,09,29,09,30,16.00
2008,09,29,09,31,16.10
2008,09,29,09,32,16.10
2008,09,29,09,33,16.20
2008,09,29,09,34,16.30
2008,09,29,09,35,16.40
2008,09,29,09,36,16.40
2008,09,29,09,37,16.40
2008,09,29,09,38,16.60
2008,09,29,09,39,16.60
2008,09,29,09,40,16.70
2008,09,29,09,41,16.80
2008,09,29,09,42,16.90
2008,09,29,09,43,17.00
2008,09,29,09,44,17.10
2008,09,29,09,45,17.20
2008,09,29,09,46,17.30
2008,09,29,09,47,17.30
2008,09,29,09,48,17.40
2008,09,29,09,49,17.50
2008,09,29,09,50,17.50
2008,09,29,09,51,17.60
2008,09,29,09,52,17.70
2008,09,29,09,53,17.80
2008,09,29,09,54,17.90
2008,09,29,09,55,17.90
2008,09,29,09,56,18.00
2008,09,29,09,57,18.10
2008,09,29,09,58,18.20
2008,09,29,09,59,18.30
2008,09,29,10,00,18.40
2008,09,29,10,01,18.60
2008,09,29,10,02,18.70
2008,09,29,10,03,18.80
2008,09,29,10,04,18.90
2008,09,29,10,05,19.00
2008,09,29,10,06,19.10
2008,09,29,10,07,19.20
2008,09,29,10,08,19.30
2008,09,29,10,09,19.40
2008,09,29,10,10,19.50
2008,09,29,10,11,19.60
2008,09,29,10,12,19.60
2008,09,29,10,13,19.70
2008,09,29,10,14,19.80
2008,09,29,10,15,19.80
2008,09,29,10,16,19.80
2008,09,29,10,17,19.80
2008,09,29,10,18,19.80
2008,09,29,10,19,19.90
2008,09,29,10,20,19.90
2008,09,29,10,21,20.00
2008,09,29,10,22,20.10
2008,09,29,10,23,20.10
2008,09,29,10,24,20.20
2008,09,29,10,25,20.20
2008,09,29,10,26,20.20
2008,09,29,10,27,20.20
2008,09,29,10,28,20.20
2008,09,29,10,29,20.20
2008,09,29,10,30,20.20
2008,09,29,10,31,20.20
2008,09,29,10,32,20.20
2008,09,29,10,33,20.30
2008,09,29,10,34,20.30
2008,09,29,10,35,20.30
2008,09,29,10,36,20.30
2008,09,29,10,37,20.30
2008,09,29,10,38,20.30
2008,09,29,10,39,20.30
2008,09,29,10,40,20.30
2008,09,29,10,41,20.30
2008,09,29,10,42,20.40
2008,09,29,10,43,20.40
2008,09,29,10,44,20.50
2008,09,29,10,45,20.50
2008,09,29,10,46,20.50
2008,09,29,10,47,20.50
2008,09,29,10,48,20.50
2008,09,29,10,49,20.50
2008,09,29,10,50,20.50
2008,09,29,10,51,20.50
2008,09,29,10,52,20.40
2008,09,29,10,53,20.40
2008,09,29,10,54,20.30
2008,09,29,10,55,20.30
2008,09,29,10,56,20.40
2008,09,29,10,57,20.40
2008,09,29,10,58,20.40
2008,09,29,10,59,20.50
2008,09,29,11,00,20.50
2008,09,29,11,01,20.60
2008,09,29,11,02,20.70
2008,09,29,11,03,20.80
2008,09,29,11,04,20.90
2008,09,29,11,05,21.00
2008,09,29,11,06,21.10
2008,09,29,11,07,21.20
2008,09,29,11,08,21.20
2008,09,29,11,09,21.20
2008,09,29,11,10,21.20
2008,09,29,11,11,21.20
2008,09,29,11,12,21.20
2008,09,29,11,13,21.30
2008,09,29,11,14,21.30
2008,09,29,11,15,21.30
2008,09,29,11,16,21.30
2008,09,29,11,17,21.40
2008,09,29,11,18,21.40
2008,09,29,11,19,21.30
2008,09,29,11,20,21.30
2008,09,29,11,21,21.30
2008,09,29,11,22,21.40
2008,09,29,11,23,21.40
2008,09,29,11,24,21.40
2008,09,29,11,25,21.30
2008,09,29,11,26,21.30
2008,09,29,11,27,21.30
2008,09,29,11,28,21.30
2008,09,29,11,29,21.40
2008,09,29,11,30,21.50
2008,09,29,11,31,21.60
2008,09,29,11,32,21.60
2008,09,29,11,33,21.60
2008,09,29,11,34,21.60
2008,09,29,11,35,21.60
2008,09,29,11,36,21.50
2008,09,29,11,37,21.50
2008,09,29,11,38,21.60
2008,09,29,11,39,21.50
2008,09,29,11,40,21.40
2008,09,29,11,41,21.30
2008,09,29,11,42,21.30
2008,09,29,11,43,21.30
2008,09,29,11,44,21.30
2008,09,29,11,45,21.30
2008,09,29,11,46,21.30
2008,09,29,11,47,21.30
2008,09,29,11,48,21.30
2008,09,29,11,49,21.30
2008,09,29,11,50,21.40
2008,09,29,11,51,21.60
2008,09,29,11,52,21.60
2008,09,29,11,53,21.60
2008,09,29,11,54,21.60
2008,09,29,11,55,21.60
2008,09,29,11,56,21.60
2008,09,29,11,57,21.60
2008,09,29,11,58,21.60
2008,09,29,11,59,21.70
2008,09,29,12,00,21.80
2008,09,29,12,01,21.80
2008,09,29,12,02,21.80
2008,09,29,12,03,21.90
2008,09,29,12,04,21.90
2008,09,29,12,05,21.90
2008,09,29,12,06,21.90
2008,09,29,12,07,21.80
2008,09,29,12,08,21.80
2008,09,29,12,09,21.80
2008,09,29,12,10,21.80
2008,09,29,12,11,21.80
2008,09,29,12,12,21.90
2008,09,29,12,13,21.80
2008,09,29,12,14,21.90
2008,09,29,12,15,21.90
2008,09,29,12,16,21.90
2008,09,29,12,17,22.00
2008,09,29,12,18,22.00
2008,09,29,12,19,22.10
2008,09,29,12,20,22.10
2008,09,29,12,21,22.10
2008,09,29,12,22,22.10
2008,09,29,12,23,22.20
2008,09,29,12,24,22.10
2008,09,29,12,25,22.10
2008,09,29,12,26,22.10
2008,09,29,12,27,22.10
2008,09,29,12,28,22.10
2008,09,29,12,29,22.20
2008,09,29,12,30,22.20
2008,09,29,12,31,22.30
2008,09,29,12,32,22.40
2008,09,29,12,33,22.40
2008,09,29,12,34,22.50
2008,09,29,12,35,22.40
2008,09,29,12,36,22.40
2008,09,29,12,37,22.40
2008,09,29,12,38,22.40
2008,09,29,12,39,22.50
2008,09,29,12,40,22.50
2008,09,29,12,41,22.60
2008,09,29,12,42,22.60
2008,09,29,12,43,22.70
2008,09,29,12,44,22.80
2008,09,29,12,45,22.80
2008,09,29,12,46,22.80
2008,09,29,12,47,22.70
2008,09,29,12,48,22.70
2008,09,29,12,49,22.70
2008,09,29,12,50,22.70
2008,09,29,12,51,22.80
2008,09,29,12,52,22.90
2008,09,29,12,53,22.90
2008,09,29,12,54,22.90
2008,09,29,12,55,22.90
2008,09,29,12,56,23.00
2008,09,29,12,57,22.90
2008,09,29,12,58,22.90
2008,09,29,12,59,23.00
2008,09,29,13,00,23.10
2008,09,29,13,01,23.10
2008,09,29,13,02,23.20
2008,09,29,13,03,23.20
2008,09,29,13,04,23.20
2008,09,29,13,05,23.30
2008,09,29,13,06,23.30
2008,09,29,13,07,23.30
2008,09,29,13,08,23.30
2008,09,29,13,09,23.40
2008,09,29,13,10,23.40
2008,09,29,13,11,23.40
2008,09,29,13,12,23.30
2008,09,29,13,13,23.30
2008,09,29,13,14,23.30
2008,09,29,13,15,23.20
2008,09,29,13,16,23.20
2008,09,29,13,17,23.30
2008,09,29,13,18,23.30
2008,09,29,13,19,23.30
2008,09,29,13,20,23.40
2008,09,29,13,21,23.40
2008,09,29,13,22,23.50
2008,09,29,13,23,23.60
2008,09,29,13,24,23.60
2008,09,29,13,25,23.60
2008,09,29,13,26,23.60
2008,09,29,13,27,23.40
2008,09,29,13,28,23.30
2008,09,29,13,29,23.30
2008,09,29,13,30,23.30
2008,09,29,13,31,23.20
2008,09,29,13,32,23.20
2008,09,29,13,33,23.20
2008,09,29,13,34,23.30
2008,09,29,13,35,23.30
2008,09,29,13,36,23.30
2008,09,29,13,37,23.30
2008,09,29,13,38,23.40
2008,09,29,13,39,23.30
2008,09,29,13,40,23.30
2008,09,29,13,41,23.40
2008,09,29,13,42,23.40
2008,09,29,13,43,23.40
2008,09,29,13,44,23.30
2008,09,29,13,45,23.30
2008,09,29,13,46,23.40
2008,09,29,13,47,23.40
2008,09,29,13,48,23.50
2008,09,29,13,49,23.60
2008,09,29,13,50,23.70
2008,09,29,13,51,23.70
2008,09,29,13,52,23.70
2008,09,29,13,53,23.70
2008,09,29,13,54,23.70
2008,09,29,13,55,23.70
2008,09,29,13,56,23.70
2008,09,29,13,57,23.70
2008,09,29,13,58,23.80
2008,09,29,13,59,23.80
2008,09,29,14,00,23.80
2008,09,29,14,01,23.70
2008,09,29,14,02,23.80
2008,09,29,14,03,23.80
2008,09,29,14,04,23.90
2008,09,29,14,05,23.90
2008,09,29,14,06,23.90
2008,09,29,14,07,23.90
2008,09,29,14,08,23.90
2008,09,29,14,09,23.90
2008,09,29,14,10,23.90
2008,09,29,14,11,23.90
2008,09,29,14,12,23.90
2008,09,29,14,13,24.00
2008,09,29,14,14,24.10
2008,09,29,14,15,24.10
2008,09,29,14,16,24.20
2008,09,29,14,17,24.30
2008,09,29,14,18,24.30
2008,09,29,14,19,24.30
2008,09,29,14,20,24.30
2008,09,29,14,21,24.30
2008,09,29,14,22,24.40
2008,09,29,14,23,24.40
2008,09,29,14,24,24.30
2008,09,29,14,25,24.30
2008,09,29,14,26,24.20
2008,09,29,14,27,24.20
2008,09,29,14,28,24.10
2008,09,29,14,29,24.10
2008,09,29,14,30,24.20
2008,09,29,14,31,24.20
2008,09,29,14,32,24.20
2008,09,29,14,33,24.20
2008,09,29,14,34,24.10
2008,09,29,14,35,24.10
2008,09,29,14,36,24.00
2008,09,29,14,37,23.90
2008,09,29,14,38,23.90
2008,09,29,14,39,23.90
2008,09,29,14,40,23.90
2008,09,29,14,41,24.10
2008,09,29,14,42,24.10
2008,09,29,14,43,24.10
2008,09,29,14,44,24.10
2008,09,29,14,45,24.20
2008,09,29,14,46,24.20
2008,09,29,14,47,24.30
2008,09,29,14,48,24.30
2008,09,29,14,49,24.30
2008,09,29,14,50,24.30
2008,09,29,14,51,24.30
2008,09,29,14,52,24.40
2008,09,29,14,53,24.40
2008,09,29,14,54,24.40
2008,09,29,14,55,24.40
2008,09,29,14,56,24.40
2008,09,29,14,57,24.40
2008,09,29,14,58,24.40
2008,09,29,14,59,24.40
2008,09,29,15,00,24.40
2008,09,29,15,01,24.50
2008,09,29,15,02,24.50
2008,09,29,15,03,24.50
2008,09,29,15,04,24.40
2008,09,29,15,05,24.40
2008,09,29,15,06,24.40
2008,09,29,15,07,24.40
2008,09,29,15,08,24.40
2008,09,29,15,09,24.40
2008,09,29,15,10,24.50
2008,09,29,15,11,24.50
2008,09,29,15,12,24.50
2008,09,29,15,13,24.50
2008,09,29,15,14,24.50
2008,09,29,15,15,24.40
2008,09,29,15,16,24.40
2008,09,29,15,17,24.30
2008,09,29,15,18,24.30
2008,09,29,15,19,24.30
2008,09,29,15,20,24.30
2008,09,29,15,21,24.30
2008,09,29,15,22,24.30
2008,09,29,15,23,24.40
2008,09,29,15,24,24.40
2008,09,29,15,25,24.50
2008,09,29,15,26,24.50
2008,09,29,15,27,24.40
2008,09,29,15,28,24.40
2008,09,29,15,29,24.40
2008,09,29,15,30,24.40
2008,09,29,15,31,24.40
2008,09,29,15,32,24.40
2008,09,29,15,33,24.40
2008,09,29,15,34,24.40
2008,09,29,15,35,24.40
2008,09,29,15,36,24.30
2008,09,29,15,37,24.30
2008,09,29,15,38,24.40
2008,09,29,15,39,24.50
2008,09,29,15,40,24.60
2008,09,29,15,41,24.60
2008,09,29,15,42,24.60
2008,09,29,15,43,24.50
2008,09,29,15,44,24.50
2008,09,29,15,45,24.50
2008,09,29,15,46,24.60
2008,09,29,15,47,24.60
2008,09,29,15,48,24.60
2008,09,29,15,49,24.60
2008,09,29,15,50,24.70
2008,09,29,15,51,24.70
2008,09,29,15,52,24.70
2008,09,29,15,53,24.80
2008,09,29,15,54,24.80
2008,09,29,15,55,24.80
2008,09,29,15,56,24.70
2008,09,29,15,57,24.70
2008,09,29,15,58,24.70
2008,09,29,15,59,24.70
2008,09,29,16,00,24.70
2008,09,29,16,01,24.70
2008,09,29,16,02,24.70
2008,09,29,16,03,24.70
2008,09,29,16,04,24.70
2008,09,29,16,05,24.60
2008,09,29,16,06,24.60
2008,09,29,16,07,24.60
2008,09,29,16,08,24.60
2008,09,29,16,09,24.60
2008,09,29,16,10,24.60
2008,09,29,16,11,24.50
2008,09,29,16,12,24.50
2008,09,29,16,13,24.50
2008,09,29,16,14,24.50
2008,09,29,16,15,24.50
2008,09,29,16,16,24.50
2008,09,29,16,17,24.50
2008,09,29,16,18,24.50
2008,09,29,16,19,24.50
2008,09,29,16,20,24.50
2008,09,29,16,21,24.50
2008,09,29,16,22,24.50
2008,09,29,16,23,24.50
2008,09,29,16,24,24.50
2008,09,29,16,25,24.40
2008,09,29,16,26,24.40
2008,09,29,16,27,24.40
2008,09,29,16,28,24.30
2008,09,29,16,29,24.30
2008,09,29,16,30,24.30
2008,09,29,16,31,24.30
2008,09,29,16,32,24.30
2008,09,29,16,33,24.30
2008,09,29,16,34,24.30
2008,09,29,16,35,24.30
2008,09,29,16,36,24.20
2008,09,29,16,37,24.20
2008,09,29,16,38,24.30
2008,09,29,16,39,24.30
2008,09,29,16,40,24.30
2008,09,29,16,41,24.30
2008,09,29,16,42,24.30
2008,09,29,16,43,24.30
2008,09,29,16,44,24.30
2008,09,29,16,45,24.30
2008,09,29,16,46,24.30
2008,09,29,16,47,24.30
2008,09,29,16,48,24.30
2008,09,29,16,49,24.30
2008,09,29,16,50,24.30
2008,09,29,16,51,24.30
2008,09,29,16,52,24.30
2008,09,29,16,53,24.20
2008,09,29,16,54,24.20
2008,09,29,16,55,24.20
2008,09,29,16,56,24.20
2008,09,29,16,57,24.20
2008,09,29,16,58,24.20
2008,09,29,16,59,24.10
2008,09,29,17,00,24.10
2008,09,29,17,01,24.10
2008,09,29,17,02,24.10
2008,09,29,17,03,24.10
2008,09,29,17,04,24.10
2008,09,29,17,05,24.10
2008,09,29,17,06,24.10
2008,09,29,17,07,24.10
2008,09,29,17,08,23.90
2008,09,29,17,09,23.90
2008,09,29,17,10,23.90
2008,09,29,17,11,23.80
2008,09,29,17,12,23.80
2008,09,29,17,13,23.80
2008,09,29,17,14,23.80
2008,09,29,17,15,23.70
2008,09,29,17,16,23.70
2008,09,29,17,17,23.70
2008,09,29,17,18,23.70
2008,09,29,17,19,23.70
2008,09,29,17,20,23.60
2008,09,29,17,21,23.60
2008,09,29,17,22,23.50
2008,09,29,17,23,23.40
2008,09,29,17,24,23.30
2008,09,29,17,25,23.30
2008,09,29,17,26,23.20
2008,09,29,17,27,23.10
2008,09,29,17,28,22.90
2008,09,29,17,29,22.90
2008,09,29,17,30,22.90
2008,09,29,17,31,22.80
2008,09,29,17,32,22.70
2008,09,29,17,33,22.70
2008,09,29,17,34,22.70
2008,09,29,17,35,22.70
2008,09,29,17,36,22.60